Погода в Грабове

Россия / Пензенская область     53°22′38″N   45°03′47″E
темп.,
°C
ветер,
м/с
пор.,
м/с
влажн.,
%
обл.,
%
осадки,
мм/ч
давл.,
гПа
погр.,
м
24 января, пн
пн2400:00−7всв3696100 0.4 1032185
03:00−8всв3696100 0.6 1033147
06:00−9всв3796100 0.1 1033192
09:00−11всв379274 0.1 1034160
12:00−8св378763 0.0 1034261
15:00−8всв369116 0.0 1033140
18:00−13всв369697 0.0 103469
21:00−14в249711 0.0 103348
25 января, вт
вт2500:00−18в2210050 0.0 10339
03:00−20вюв2210025 0.0 103210
06:00−21вюв1110010 0.0 10319
09:00−21вюв1110010 0.0 103012
12:00−11ююв2591100 0.0 1028188
15:00−9ююв3793100 0.0 1025264
18:00−11ююв269768 0.0 1024134
21:00−15ююв239990 0.1 102444
26 января, ср
ср2600:00−14ююв269799 0.1 1022141
03:00−17ююв2210092 0.2 102113
06:00−15ююв1198100 0.1 102026
09:00−13ю2496100 0.2 1020108
12:00−9юз2492100 0.1 1019237
15:00−9юз2495100 0.1 1018175
18:00−11юз249899 0.1 101962
21:00−16юз229983 0.1 102031
27 января, чт
чт2700:00−18ююз2210090 0.0 102022
03:00−18ююз229953 0.1 102013
06:00−21ююз2210090 0.0 102019
09:00−19ююз2410093 0.1 102181
12:00−13юз359486 0.0 1020195
15:00−12ююз359568 0.1 1019180
18:00−18ююз2210080 0.0 102015
21:00−18ююз2310079 0.1 102039
28 января, пт
пт2800:00−18ю2210077 0.1 101919
03:00−18ю2310091 0.1 101937
06:00−18ююв229993 0.1 101827
09:00−16ююв239880 0.2 101870
12:00−10ю379499 0.1 1016287
15:00−8ю489498 0.1 1015424
18:00−11ююв389789 0.1 1014161
21:00−10ююв4119698 0.1 1012276